CW2551 Weather Reports


Display with metric or nautical units.
time (UTC)temp
F
wind
direction
speed
MPH
gust
MPH
rain 1hr
in
rain 24hr
in
rain mn
in
humidity
%
barometer
mb
20260510205104 80 29 3.0 10.0 0.00 0.00 0.00 41 1014.6
20260510205021 78 49 2.0 8.0 0.00 0.00 0.00 42 1014.6
20260510204606 78 49 2.0 8.0 0.00 0.00 0.00 42 1014.6
20260510204105 78 355 5.0 12.0 0.00 0.00 0.00 42 1014.7
20260510204021 78 30 2.0 12.0 0.00 0.00 0.00 45 1014.7
20260510203605 78 30 2.0 12.0 0.00 0.00 0.00 45 1014.7
20260510203105 78 5 2.0 9.0 0.00 0.00 0.00 45 1014.7
20260510202605 78 322 3.0 12.0 0.00 0.00 0.00 44 1014.6
20260510202021 77 1 2.0 9.0 0.00 0.00 0.00 46 1014.6
20260510201605 77 1 2.0 9.0 0.00 0.00 0.00 46 1014.6
20260510201107 77 355 2.0 8.0 0.00 0.00 0.00 44 1014.6
20260510201021 77 5 1.0 10.0 0.00 0.00 0.00 49 1014.5
20260510200605 77 5 1.0 10.0 0.00 0.00 0.00 49 1014.5
20260510200106 77 346 2.0 7.0 0.00 0.00 0.00 45 1014.5
20260510200024 77 23 1.0 9.0 0.00 0.00 0.00 48 1014.6
20260510195605 77 23 1.0 9.0 0.00 0.00 0.00 48 1014.6
20260510195106 76 349 3.0 8.0 0.00 0.00 0.00 48 1014.6
20260510195021 76 337 2.0 9.0 0.00 0.00 0.00 47 1014.7
20260510194605 76 337 2.0 9.0 0.00 0.00 0.00 47 1014.7
20260510194106 76 339 3.0 8.0 0.00 0.00 0.00 48 1014.8
20260510194021 76 224 1.0 3.0 0.00 0.00 0.00 47 1014.8
20260510193605 76 224 1.0 3.0 0.00 0.00 0.00 47 1014.8
20260510193105 77 17 2.0 6.0 0.00 0.00 0.00 45 1014.8
20260510193024 76 150 1.0 8.0 0.00 0.00 0.00 46 1014.8
20260510192105 76 20 3.0 8.0 0.00 0.00 0.00 44 1014.8
20260510192023 75 66 1.0 3.0 0.00 0.00 0.00 48 1014.7
20260510191605 75 66 1.0 3.0 0.00 0.00 0.00 48 1014.7
20260510191106 75 54 1.0 5.0 0.00 0.00 0.00 48 1014.8
20260510191022 75 69 2.0 8.0 0.00 0.00 0.00 49 1014.8
20260510190105 75 354 3.0 8.0 0.00 0.00 0.00 48 1015.0
20260510190024 75 18 3.0 10.0 0.00 0.00 0.00 50 1015.0
20260510185604 75 18 3.0 10.0 0.00 0.00 0.00 50 1015.0
20260510185106 76 339 2.0 5.0 0.00 0.00 0.00 50 1015.0
20260510185022 75 26 1.0 3.0 0.00 0.00 0.00 50 1015.0
20260510184605 75 26 1.0 3.0 0.00 0.00 0.00 50 1015.0
20260510183605 74 359 3.0 6.0 0.00 0.00 0.00 50 1015.0
20260510183105 74 23 3.0 6.0 0.00 0.00 0.00 50 1015.0
20260510183023 73 279 1.0 3.0 0.00 0.00 0.00 52 1015.0
20260510182605 73 279 1.0 3.0 0.00 0.00 0.00 52 1015.0
20260510182105 73 270 2.0 3.0 0.00 0.00 0.00 52 1014.9
20260510182022 74 58 1.0 3.0 0.00 0.00 0.00 55 1014.9
20260510181605 74 58 1.0 3.0 0.00 0.00 0.00 55 1014.9
20260510180605 73 21 2.0 5.0 0.00 0.00 0.00 54 1014.9
20260510180105 72 17 2.0 5.0 0.00 0.00 0.00 54 1015.0
20260510180024 71 13 0.0 1.0 0.00 0.00 0.00 58 1014.8
20260510175605 71 13 0.0 1.0 0.00 0.00 0.00 58 1014.8
20260510175105 72 11 2.0 3.0 0.00 0.00 0.00 54 1015.0
20260510175021 72 20 2.0 3.0 0.00 0.00 0.00 54 1015.0
20260510174605 72 20 2.0 3.0 0.00 0.00 0.00 54 1015.0
20260510174105 71 12 1.0 3.0 0.00 0.00 0.00 56 1015.0
20260510174023 72 0 1.0 3.0 0.00 0.00 0.00 55 1015.0
20260510173606 72 0 1.0 3.0 0.00 0.00 0.00 55 1015.0
20260510173105 72 45 1.0 3.0 0.00 0.00 0.00 53 1015.1
20260510173024 72 358 2.0 5.0 0.00 0.00 0.00 53 1015.2
20260510172105 72 286 0.0 2.0 0.00 0.00 0.00 55 1015.2
20260510172023 72 304 1.0 8.0 0.00 0.00 0.00 54 1015.2
20260510171605 72 304 1.0 8.0 0.00 0.00 0.00 54 1015.2
20260510171021 71 29 0.0 3.0 0.00 0.00 0.00 55 1015.2
20260510170604 71 29 0.0 3.0 0.00 0.00 0.00 55 1015.2
20260510170106 71 24 2.0 8.0 0.00 0.00 0.00 53 1015.1
20260510170023 70 251 1.0 3.0 0.00 0.00 0.00 55 1015.0
20260510165605 70 251 1.0 3.0 0.00 0.00 0.00 55 1015.0
20260510165105 70 340 2.0 5.0 0.00 0.00 0.00 55 1015.1
20260510165021 70 0 2.0 5.0 0.00 0.00 0.00 55 1015.1
20260510164604 70 0 2.0 5.0 0.00 0.00 0.00 55 1015.1
20260510164105 70 340 2.0 5.0 0.00 0.00 0.00 55 1015.1
20260510164024 70 354 1.0 5.0 0.00 0.00 0.00 56 1015.0
20260510163606 70 354 1.0 5.0 0.00 0.00 0.00 56 1015.0
20260510163106 69 356 0.0 3.0 0.00 0.00 0.00 56 1015.0
20260510163023 69 0 1.0 3.0 0.00 0.00 0.00 56 1015.0
20260510162605 69 0 1.0 3.0 0.00 0.00 0.00 56 1015.0
20260510162106 69 358 2.0 3.0 0.00 0.00 0.00 57 1015.0
20260510162021 69 38 0.0 3.0 0.00 0.00 0.00 59 1015.0
20260510161605 69 38 0.0 3.0 0.00 0.00 0.00 59 1015.0
20260510161106 68 45 1.0 3.0 0.00 0.00 0.00 59 1015.0
20260510161021 68 47 1.0 3.0 0.00 0.00 0.00 60 1015.0
20260510160605 68 47 1.0 3.0 0.00 0.00 0.00 60 1015.0
20260510160023 67 329 0.0 1.0 0.00 0.00 0.00 62 1015.0
20260510155106 66 298 0.0 0.0 0.00 0.00 0.00 65 1015.0
20260510155021 66 298 0.0 0.0 0.00 0.00 0.00 64 1015.0
20260510154605 66 298 0.0 0.0 0.00 0.00 0.00 64 1015.0
20260510154106 66 298 0.0 0.0 0.00 0.00 0.00 65 1015.1
20260510154021 65 298 0.0 0.0 0.00 0.00 0.00 64 1015.0
20260510153605 65 298 0.0 0.0 0.00 0.00 0.00 64 1015.0
20260510153106 65 298 0.0 0.0 0.00 0.00 0.00 66 1014.9
20260510152605 64 297 0.0 0.0 0.00 0.00 0.00 67 1015.0
20260510152106 63 300 0.0 0.0 0.00 0.00 0.00 69 1014.9
20260510152021 63 306 0.0 0.0 0.00 0.00 0.00 70 1015.0
20260510151604 63 306 0.0 0.0 0.00 0.00 0.00 70 1015.0
20260510151106 62 309 0.0 0.0 0.00 0.00 0.00 71 1015.0
20260510151021 62 309 0.0 0.0 0.00 0.00 0.00 72 1015.0
20260510150605 62 309 0.0 0.0 0.00 0.00 0.00 72 1015.0
20260510150022 60 308 0.0 0.0 0.00 0.00 0.00 75 1015.1
20260510145604 60 308 0.0 0.0 0.00 0.00 0.00 75 1015.1
20260510145021 58 308 0.0 0.0 0.00 0.00 0.00 82 1015.0
20260510144604 58 308 0.0 0.0 0.00 0.00 0.00 82 1015.0
20260510144106 57 308 0.0 0.0 0.00 0.00 0.00 84 1015.0
20260510143604 57 308 0.0 0.0 0.00 0.00 0.00 84 1014.9
20260510143106 56 308 0.0 0.0 0.00 0.00 0.00 85 1015.0
20260510143022 55 307 0.0 0.0 0.00 0.00 0.00 85 1014.9
20260510142605 55 307 0.0 0.0 0.00 0.00 0.00 85 1014.9
20260510142105 55 307 0.0 0.0 0.00 0.00 0.00 86 1014.9
20260510142022 54 307 0.0 0.0 0.00 0.00 0.00 86 1014.8
20260510141605 54 307 0.0 0.0 0.00 0.00 0.00 86 1014.8
20260510141021 53 307 0.0 0.0 0.00 0.00 0.00 86 1014.8
20260510140105 53 307 0.0 0.0 0.00 0.00 0.00 85 1014.7
20260510140024 53 307 0.0 0.0 0.00 0.00 0.00 85 1014.6
20260510135105 53 307 0.0 0.0 0.00 0.00 0.00 85 1014.5
20260510135022 53 307 0.0 0.0 0.00 0.00 0.00 85 1014.6
20260510134605 53 307 0.0 0.0 0.00 0.00 0.00 85 1014.6
20260510134105 52 307 0.0 0.0 0.00 0.00 0.00 84 1014.5
20260510134023 52 307 0.0 0.0 0.00 0.00 0.00 84 1014.5
20260510133105 52 307 0.0 0.0 0.00 0.00 0.00 84 1014.3
20260510133024 52 307 0.0 0.0 0.00 0.00 0.00 84 1014.2
20260510132604 52 307 0.0 0.0 0.00 0.00 0.00 84 1014.2
20260510132106 52 307 0.0 0.0 0.00 0.00 0.00 84 1014.3
20260510132021 53 307 0.0 0.0 0.00 0.00 0.00 83 1014.3
20260510131104 53 307 0.0 0.0 0.00 0.00 0.00 83 1014.2
20260510131022 53 307 0.0 0.0 0.00 0.00 0.00 83 1014.1
20260510130604 53 307 0.0 0.0 0.00 0.00 0.00 83 1014.1
20260510130106 53 307 0.0 0.0 0.00 0.00 0.00 83 1014.1
20260510130022 53 307 0.0 0.0 0.00 0.00 0.00 83 1014.1
20260510125605 53 307 0.0 0.0 0.00 0.00 0.00 83 1014.1
20260510125105 53 307 0.0 0.0 0.00 0.00 0.00 82 1014.1
20260510125022 53 307 0.0 0.0 0.00 0.00 0.00 82 1014.0
20260510124604 53 307 0.0 0.0 0.00 0.00 0.00 82 1014.0
20260510124106 53 307 0.0 0.0 0.00 0.00 0.00 82 1014.0
20260510123604 53 307 0.0 0.0 0.00 0.00 0.00 82 1014.1
20260510123106 53 307 0.0 0.0 0.00 0.00 0.00 82 1014.2
20260510123021 53 307 0.0 0.0 0.00 0.00 0.00 81 1014.1
20260510122106 53 307 0.0 0.0 0.00 0.00 0.00 81 1014.1
20260510122021 54 307 0.0 0.0 0.00 0.00 0.00 81 1014.0
20260510121605 54 307 0.0 0.0 0.00 0.00 0.00 81 1014.0
20260510121106 54 307 0.0 0.0 0.00 0.00 0.00 81 1014.0
20260510121021 54 307 0.0 0.0 0.00 0.00 0.00 81 1014.0
20260510120605 54 307 0.0 0.0 0.00 0.00 0.00 81 1014.0
20260510120107 54 307 0.0 0.0 0.00 0.00 0.00 81 1014.1
20260510120021 54 307 0.0 0.0 0.00 0.00 0.00 81 1014.1
20260510115605 54 307 0.0 0.0 0.00 0.00 0.00 81 1014.1
20260510115106 54 307 0.0 0.0 0.00 0.00 0.00 80 1014.2
20260510115021 54 307 0.0 0.0 0.00 0.00 0.00 80 1014.2
20260510114605 54 307 0.0 0.0 0.00 0.00 0.00 80 1014.2
20260510114106 54 307 0.0 0.0 0.00 0.00 0.00 80 1014.1
20260510114021 54 307 0.0 0.0 0.00 0.00 0.00 80 1014.1
20260510113605 54 307 0.0 0.0 0.00 0.00 0.00 80 1014.1
20260510113106 54 307 0.0 0.0 0.00 0.00 0.00 79 1014.0
20260510112604 55 307 0.0 0.0 0.00 0.00 0.00 79 1013.9
20260510112106 55 307 0.0 0.0 0.00 0.00 0.00 79 1013.9
20260510111605 55 307 0.0 0.0 0.00 0.00 0.00 79 1013.8
20260510111106 55 307 0.0 0.0 0.00 0.00 0.00 78 1013.7
20260510110605 55 307 0.0 0.0 0.00 0.00 0.00 78 1013.7
20260510110020 55 307 0.0 0.0 0.00 0.00 0.00 78 1013.6
20260510105605 55 307 0.0 0.0 0.00 0.00 0.00 78 1013.6
20260510105105 55 307 0.0 0.0 0.00 0.00 0.00 78 1013.6
20260510105022 56 307 0.0 0.0 0.00 0.00 0.00 77 1013.6
20260510104605 56 307 0.0 0.0 0.00 0.00 0.00 77 1013.6
20260510104106 56 307 0.0 0.0 0.00 0.00 0.00 77 1013.5
20260510104022 56 307 0.0 0.0 0.00 0.00 0.00 77 1013.6
20260510103605 56 307 0.0 0.0 0.00 0.00 0.00 77 1013.6
20260510103107 56 307 0.0 0.0 0.00 0.00 0.00 77 1013.5
20260510103022 56 307 0.0 0.0 0.00 0.00 0.00 76 1013.5
20260510102106 56 307 0.0 0.0 0.00 0.00 0.00 77 1013.4
20260510102021 56 307 0.0 0.0 0.00 0.00 0.00 76 1013.4
20260510101605 56 307 0.0 0.0 0.00 0.00 0.00 76 1013.4
20260510101106 56 307 0.0 0.0 0.00 0.00 0.00 76 1013.4
20260510101021 57 307 0.0 0.0 0.00 0.00 0.00 75 1013.4
20260510100605 57 307 0.0 0.0 0.00 0.00 0.00 75 1013.4
20260510100106 57 307 0.0 0.0 0.00 0.00 0.00 75 1013.4
20260510095604 57 307 0.0 0.0 0.00 0.00 0.00 75 1013.5
20260510095106 57 307 0.0 0.0 0.00 0.00 0.00 75 1013.4
20260510094604 57 307 0.0 0.0 0.00 0.00 0.00 74 1013.4
20260510094106 57 307 0.0 0.0 0.00 0.00 0.00 74 1013.4
20260510094021 58 307 0.0 0.0 0.00 0.00 0.00 74 1013.4
20260510093105 58 307 0.0 0.0 0.00 0.00 0.00 74 1013.5
20260510093022 58 307 0.0 0.0 0.00 0.00 0.00 73 1013.4
20260510092604 58 307 0.0 0.0 0.00 0.00 0.00 73 1013.4
20260510092106 58 307 0.0 0.0 0.00 0.00 0.00 73 1013.5
20260510091605 59 307 0.0 0.0 0.00 0.00 0.00 73 1013.5
20260510091107 59 307 0.0 0.0 0.00 0.00 0.00 72 1013.5
20260510091021 59 307 0.0 0.0 0.00 0.00 0.00 72 1013.6
20260510090605 59 307 0.0 0.0 0.00 0.00 0.00 72 1013.6
20260510085605 60 307 0.0 0.0 0.00 0.00 0.00 71 1013.6
20260510085106 60 307 0.0 0.0 0.00 0.00 0.00 70 1013.7
20260510085020 60 307 0.0 0.0 0.00 0.00 0.00 70 1013.7
20260510084604 60 307 0.0 0.0 0.00 0.00 0.00 70 1013.7
20260510084106 60 307 0.0 0.0 0.00 0.00 0.00 69 1013.7
20260510084021 61 307 0.0 0.0 0.00 0.00 0.00 69 1013.6
20260510083604 61 307 0.0 0.0 0.00 0.00 0.00 69 1013.6
20260510083104 61 307 0.0 0.0 0.00 0.00 0.00 68 1013.6
20260510083024 61 307 0.0 0.0 0.00 0.00 0.00 68 1013.5
20260510082605 61 307 0.0 0.0 0.00 0.00 0.00 68 1013.5
20260510082105 61 307 0.0 0.0 0.00 0.00 0.00 67 1013.5
20260510082020 62 307 0.0 0.0 0.00 0.00 0.00 67 1013.5
20260510081605 62 307 0.0 0.0 0.00 0.00 0.00 67 1013.5
20260510081106 62 307 0.0 0.0 0.00 0.00 0.00 66 1013.7
20260510081021 62 307 0.0 0.0 0.00 0.00 0.00 66 1013.5
20260510080604 62 307 0.0 0.0 0.00 0.00 0.00 66 1013.5
20260510080106 63 307 0.0 0.0 0.00 0.00 0.00 65 1013.7
20260510080021 63 307 0.0 0.0 0.00 0.00 0.00 64 1013.6
20260510075605 63 307 0.0 0.0 0.00 0.00 0.00 64 1013.6
20260510075105 63 307 0.0 0.0 0.00 0.00 0.00 64 1013.6
20260510075022 63 307 0.0 0.0 0.00 0.00 0.00 64 1013.4
20260510074604 63 307 0.0 0.0 0.00 0.00 0.00 64 1013.4
20260510074105 64 307 0.0 0.0 0.00 0.00 0.00 62 1013.4
20260510074022 64 307 0.0 0.0 0.00 0.00 0.00 62 1013.4
20260510073604 64 307 0.0 0.0 0.00 0.00 0.00 62 1013.4
20260510073105 64 307 0.0 0.0 0.00 0.00 0.00 62 1013.5
20260510072605 64 307 0.0 0.0 0.00 0.00 0.00 61 1013.5
20260510072104 64 307 0.0 0.0 0.00 0.00 0.00 61 1013.5
20260510072022 65 307 0.0 0.0 0.00 0.00 0.00 61 1013.4
20260510071604 65 307 0.0 0.0 0.00 0.00 0.00 61 1013.4
20260510071106 65 307 0.0 0.0 0.00 0.00 0.00 60 1013.5
20260510071020 65 308 0.0 0.0 0.00 0.00 0.00 60 1013.5
20260510070023 65 311 0.0 0.0 0.00 0.00 0.00 59 1013.5
20260510065104 65 311 0.0 0.0 0.00 0.00 0.00 59 1013.6
20260510065021 66 311 0.0 0.0 0.00 0.00 0.00 59 1013.5
20260510064605 66 311 0.0 0.0 0.00 0.00 0.00 59 1013.5
20260510064104 66 311 0.0 0.0 0.00 0.00 0.00 58 1013.5
20260510064021 66 311 0.0 0.0 0.00 0.00 0.00 58 1013.5
20260510063606 66 311 0.0 0.0 0.00 0.00 0.00 58 1013.5
20260510063107 66 311 0.0 0.0 0.00 0.00 0.00 58 1013.6
20260510063020 66 311 0.0 0.0 0.00 0.00 0.00 57 1013.6
20260510062606 66 311 0.0 0.0 0.00 0.00 0.00 57 1013.6
20260510062105 67 311 0.0 0.0 0.00 0.00 0.00 57 1013.6
20260510062021 67 311 0.0 0.0 0.00 0.00 0.00 57 1013.6
20260510061021 67 311 0.0 0.0 0.00 0.00 0.00 56 1013.6
20260510060606 67 311 0.0 0.0 0.00 0.00 0.00 56 1013.6
20260510060105 67 311 0.0 0.0 0.00 0.00 0.00 56 1013.6
20260510060020 68 311 0.0 0.0 0.00 0.00 0.00 55 1013.6
20260510055604 68 311 0.0 0.0 0.00 0.00 0.00 55 1013.6
20260510055105 68 311 0.0 0.0 0.00 0.00 0.00 54 1013.6
20260510055021 68 311 0.0 0.0 0.00 0.00 0.00 54 1013.5
20260510054604 68 311 0.0 0.0 0.00 0.00 0.00 54 1013.5
20260510054104 68 311 0.0 0.0 0.00 0.00 0.00 54 1013.5
20260510054021 69 311 0.0 0.0 0.00 0.00 0.00 53 1013.5
20260510053021 69 311 0.0 0.0 0.00 0.00 0.00 53 1013.4
20260510052606 69 311 0.0 0.0 0.00 0.00 0.00 53 1013.4
20260510052021 70 311 0.0 0.0 0.00 0.00 0.00 52 1013.3
20260510051605 70 311 0.0 0.0 0.00 0.00 0.00 52 1013.3
20260510051105 70 311 0.0 0.0 0.00 0.00 0.00 51 1013.3
20260510051020 70 311 0.0 0.0 0.00 0.00 0.00 52 1013.3
20260510050604 70 311 0.0 0.0 0.00 0.00 0.00 52 1013.3
20260510050108 71 311 0.0 0.0 0.00 0.00 0.00 52 1013.1
20260510050021 71 311 0.0 0.0 0.00 0.00 0.00 51 1013.1
20260510045605 71 311 0.0 0.0 0.00 0.00 0.00 51 1013.1
20260510045021 72 311 0.0 0.0 0.00 0.00 0.00 50 1013.0
20260510044605 72 311 0.0 0.0 0.00 0.00 0.00 50 1013.0
20260510044020 72 311 0.0 0.0 0.00 0.00 0.00 48 1012.9
20260510043604 72 311 0.0 0.0 0.00 0.00 0.00 48 1012.9
20260510043105 73 311 0.0 0.0 0.00 0.00 0.00 48 1012.8
20260510043023 73 311 0.0 0.0 0.00 0.00 0.00 47 1012.8
20260510042106 73 311 0.0 0.0 0.00 0.00 0.00 47 1012.6
20260510041605 73 311 0.0 0.0 0.00 0.00 0.00 47 1012.7
20260510041105 73 311 0.0 0.0 0.00 0.00 0.00 48 1012.5
20260510041022 73 312 0.0 0.0 0.00 0.00 0.00 48 1012.3
20260510040605 73 312 0.0 0.0 0.00 0.00 0.00 48 1012.3
20260510040105 73 315 0.0 0.0 0.00 0.00 0.00 46 1012.2
20260510040022 73 317 0.0 0.0 0.00 0.00 0.00 48 1012.1
20260510035605 73 317 0.0 0.0 0.00 0.00 0.00 48 1012.1
20260510035104 73 316 0.0 0.0 0.00 0.00 0.00 49 1011.9
20260510035020 73 307 0.0 0.0 0.00 0.00 0.00 49 1011.9
20260510034604 73 307 0.0 0.0 0.00 0.00 0.00 49 1011.9
20260510034105 74 306 0.0 0.0 0.00 0.00 0.00 51 1011.7
20260510034021 74 308 0.0 0.0 0.00 0.00 0.00 49 1011.6
20260510033604 74 308 0.0 0.0 0.00 0.00 0.00 49 1011.6
20260510033104 75 312 0.0 0.0 0.00 0.00 0.00 47 1011.5
20260510033022 76 312 0.0 0.0 0.00 0.00 0.00 46 1011.5
20260510032605 76 312 0.0 0.0 0.00 0.00 0.00 46 1011.5
20260510032105 76 312 0.0 0.0 0.00 0.00 0.00 46 1011.3
20260510032021 77 320 0.0 0.0 0.00 0.00 0.00 45 1011.2
20260510031605 77 320 0.0 0.0 0.00 0.00 0.00 45 1011.2
20260510031105 77 322 0.0 0.0 0.00 0.00 0.00 46 1011.2
20260510031021 78 331 0.0 0.0 0.00 0.00 0.00 45 1011.1
20260510030605 78 331 0.0 0.0 0.00 0.00 0.00 45 1011.1
20260510030105 78 331 0.0 0.0 0.00 0.00 0.00 45 1011.2
20260510030022 79 331 0.0 0.0 0.00 0.00 0.00 43 1011.0
20260510025606 79 331 0.0 0.0 0.00 0.00 0.00 43 1011.0
20260510025104 79 331 0.0 0.0 0.00 0.00 0.00 41 1011.1
20260510024607 80 331 0.0 0.0 0.00 0.00 0.00 38 1011.1
20260510024105 80 331 0.0 0.0 0.00 0.00 0.00 36 1011.0
20260510023605 81 331 0.0 0.0 0.00 0.00 0.00 36 1011.0
20260510023104 81 331 0.0 0.0 0.00 0.00 0.00 35 1011.0
20260510023022 81 331 0.0 0.0 0.00 0.00 0.00 37 1010.9
20260510022605 81 331 0.0 0.0 0.00 0.00 0.00 37 1010.9
20260510022104 82 331 0.0 0.0 0.00 0.00 0.00 36 1011.0
20260510021105 83 333 0.0 0.0 0.00 0.00 0.00 34 1010.9
20260510021022 83 334 0.0 1.0 0.00 0.00 0.00 32 1011.0
20260510020604 83 334 0.0 1.0 0.00 0.00 0.00 32 1011.0
20260510020105 83 336 0.0 3.0 0.00 0.00 0.00 31 1011.0
20260510020024 83 332 1.0 3.0 0.00 0.00 0.00 31 1011.0
20260510015605 83 332 1.0 3.0 0.00 0.00 0.00 31 1011.0
20260510015105 84 347 0.0 3.0 0.00 0.00 0.00 31 1011.0
20260510014105 84 340 0.0 3.0 0.00 0.00 0.00 31 1011.0
20260510014020 84 340 0.0 3.0 0.00 0.00 0.00 30 1011.1
20260510013604 84 340 0.0 3.0 0.00 0.00 0.00 30 1011.1
20260510012606 84 322 0.0 3.0 0.00 0.00 0.00 31 1011.2
20260510012104 84 301 1.0 5.0 0.00 0.00 0.00 29 1011.2
20260510012020 85 328 1.0 5.0 0.00 0.00 0.00 29 1011.2
20260510011606 85 328 1.0 5.0 0.00 0.00 0.00 29 1011.2
20260510011021 85 346 1.0 8.0 0.00 0.00 0.00 28 1011.3
20260510010606 85 346 1.0 8.0 0.00 0.00 0.00 28 1011.3
20260510010024 85 20 1.0 10.0 0.00 0.00 0.00 26 1011.4
20260510005604 85 20 1.0 10.0 0.00 0.00 0.00 26 1011.4
20260510005104 85 354 2.0 8.0 0.00 0.00 0.00 26 1011.4
20260510005021 85 315 1.0 3.0 0.00 0.00 0.00 27 1011.4
20260510004605 85 315 1.0 3.0 0.00 0.00 0.00 27 1011.4
20260510004105 85 326 0.0 2.0 0.00 0.00 0.00 27 1011.3
20260510004022 85 301 0.0 0.0 0.00 0.00 0.00 28 1011.4
20260510003605 85 301 0.0 0.0 0.00 0.00 0.00 28 1011.4
20260510003105 86 293 0.0 3.0 0.00 0.00 0.00 27 1011.4
20260510003026 86 331 1.0 5.0 0.00 0.00 0.00 27 1011.3
20260510002106 86 16 1.0 8.0 0.00 0.00 0.00 25 1011.4
20260510002021 86 352 6.0 12.0 0.00 0.00 0.00 25 1011.5
20260510001106 86 7 2.0 6.0 0.00 0.00 0.00 26 1011.5
20260510001021 87 357 1.0 8.0 0.00 0.00 0.00 24 1011.6
20260510000604 87 357 1.0 8.0 0.00 0.00 0.00 24 1011.6
20260510000104 87 356 3.0 10.0 0.00 0.00 0.00 23 1011.6
20260510000023 87 348 2.0 6.0 0.00 0.00 0.00 24 1011.6
20260509235605 87 348 2.0 6.0 0.00 0.00 0.00 24 1011.6
20260509235104 87 13 1.0 5.0 0.00 0.00 0.00 25 1011.6
20260509235022 87 22 3.0 8.0 0.00 0.00 0.00 24 1011.5
20260509234604 87 22 3.0 8.0 0.00 0.00 0.00 24 1011.5
20260509234105 87 289 0.0 12.0 0.00 0.00 0.00 25 1011.6
20260509234022 87 354 4.0 10.0 0.00 0.00 0.00 25 1011.7
20260509233604 87 354 4.0 10.0 0.00 0.00 0.00 25 1011.7
20260509233106 87 5 1.0 5.0 0.00 0.00 0.00 25 1011.8
20260509233022 87 342 1.0 7.0 0.00 0.00 0.00 26 1011.8
20260509232605 87 342 1.0 7.0 0.00 0.00 0.00 26 1011.8
20260509232022 87 3 0.0 3.0 0.00 0.00 0.00 26 1011.9
20260509231604 87 3 0.0 3.0 0.00 0.00 0.00 26 1011.9
20260509231104 87 336 1.0 9.0 0.00 0.00 0.00 25 1012.0
20260509231022 88 321 2.0 8.0 0.00 0.00 0.00 26 1012.0
20260509230604 88 321 2.0 8.0 0.00 0.00 0.00 26 1012.0
20260509230105 88 352 1.0 6.0 0.00 0.00 0.00 26 1012.0
20260509230024 88 325 2.0 6.0 0.00 0.00 0.00 25 1012.1
20260509225605 88 325 2.0 6.0 0.00 0.00 0.00 25 1012.1
20260509225106 88 15 2.0 8.0 0.00 0.00 0.00 26 1012.2
20260509225020 87 317 1.0 8.0 0.00 0.00 0.00 27 1012.2
20260509224605 87 317 1.0 8.0 0.00 0.00 0.00 27 1012.2
20260509224106 87 336 0.0 6.0 0.00 0.00 0.00 29 1012.3
20260509224021 86 38 1.0 5.0 0.00 0.00 0.00 30 1012.4
20260509223604 86 38 1.0 5.0 0.00 0.00 0.00 30 1012.4
20260509223105 87 331 0.0 3.0 0.00 0.00 0.00 29 1012.4
20260509223024 86 357 0.0 3.0 0.00 0.00 0.00 30 1012.6
20260509222604 86 357 0.0 3.0 0.00 0.00 0.00 30 1012.6
20260509221605 86 308 0.0 1.0 0.00 0.00 0.00 33 1012.7
20260509221106 86 308 0.0 3.0 0.00 0.00 0.00 30 1012.7
20260509221020 86 355 0.0 2.0 0.00 0.00 0.00 31 1012.8
20260509220105 85 348 0.0 3.0 0.00 0.00 0.00 33 1012.9
20260509220024 85 350 0.0 0.0 0.00 0.00 0.00 33 1013.1
20260509215106 85 350 1.0 5.0 0.00 0.00 0.00 33 1013.1
20260509215021 84 22 0.0 1.0 0.00 0.00 0.00 37 1013.3
20260509214105 84 24 0.0 0.0 0.00 0.00 0.00 33 1013.3
20260509214023 84 24 0.0 3.0 0.00 0.00 0.00 33 1013.4
20260509213604 84 24 0.0 3.0 0.00 0.00 0.00 33 1013.4
20260509213105 83 44 0.0 0.0 0.00 0.00 0.00 37 1013.5
20260509213024 83 46 0.0 1.0 0.00 0.00 0.00 34 1013.6
20260509212605 83 46 0.0 1.0 0.00 0.00 0.00 34 1013.6
20260509212105 83 76 0.0 2.0 0.00 0.00 0.00 36 1013.7
20260509212020 84 69 1.0 8.0 0.00 0.00 0.00 32 1013.7
20260509211605 84 69 1.0 8.0 0.00 0.00 0.00 32 1013.7
20260509211106 84 42 0.0 3.0 0.00 0.00 0.00 39 1013.8
20260509211021 83 26 0.0 3.0 0.00 0.00 0.00 35 1013.8
20260509210024 82 36 0.0 5.0 0.00 0.00 0.00 36 1013.9